RH
35 33 32 30 28 25 23 21 21 20 21 21 21 20 20 19 19 19 19 19 18 18 18 17 17 17 17 16 16 15 15 15 15 16 16 16 17 18 18 20 20 22 25 28 30 29 30 32 34 35 37 38 33 28 23 21 22 21 20 16 16 33 63 93 107 106 99 100 107 108 108 106 104 103 103 103 100 99 99 89 70 63 61 61 66 66 64 69
33 31 30 28 25 23 21 20 19 18 19 19 20 20 19 19 18 18 18 18 18 18 18 18 17 17 17 16 15 15 14 14 14 15 15 15 15 17 17 18 19 20 22 25 29 31 30 31 32 33 35 38 38 37 31 25 21 20 20 17 14 17 56 105 112 106 104 99 101 104 104 104 105 104 103 105 102 98 102 99 80 63 55 56 60 57 61 68
30 29 27 26 23 22 20 19 19 18 18 18 19 19 19 19 18 18 18 18 19 19 19 19 19 19 19 18 16 15 15 14 14 14 15 15 14 15 16 17 18 19 21 23 26 29 30 30 31 32 34 35 38 41 39 33 26 22 18 17 17 14 46 99 110 106 106 100 101 101 102 104 104 104 103 104 104 100 101 102 95 85 76 70 66 57 58 64
28 27 26 25 23 22 21 20 20 19 19 19 19 20 20 20 19 19 19 19 19 19 20 20 20 20 20 19 18 17 16 15 15 15 15 16 16 16 16 16 17 18 19 21 23 26 29 30 31 31 33 35 36 39 40 40 35 29 22 16 20 19 27 59 88 104 105 101 102 99 101 104 101 102 103 101 101 102 103 102 98 98 97 92 87 74 61 62
27 26 25 25 24 22 22 22 21 20 20 20 21 21 22 22 21 20 20 19 19 19 19 19 19 20 20 20 19 18 18 17 16 17 18 18 18 17 17 16 17 17 18 20 22 24 27 28 30 32 32 34 36 38 37 41 40 35 31 22 21 23 19 25 53 92 109 104 102 101 100 100 100 101 102 100 94 96 101 100 98 99 100 95 95 94 76 65
27 25 25 25 24 23 23 23 22 22 22 22 22 22 24 25 24 23 21 20 19 19 19 19 19 19 20 21 21 20 19 19 19 19 19 19 19 19 18 18 17 17 18 19 21 22 25 26 28 31 33 34 35 37 38 41 40 36 35 32 25 22 21 19 26 62 100 106 102 102 100 99 100 101 102 100 90 91 94 90 94 99 100 97 95 99 89 71
28 26 26 26 25 24 24 23 23 24 23 23 22 23 26 27 26 25 24 23 22 21 21 21 20 20 20 21 23 24 23 21 21 21 20 20 20 21 20 20 18 18 17 17 19 20 22 24 26 29 31 34 34 36 38 40 38 33 35 38 34 25 21 22 19 30 60 84 98 101 100 100 101 99 101 101 92 98 96 80 86 95 93 97 94 93 92 75
30 29 28 28 27 26 25 24 25 25 24 23 23 25 29 29 28 27 27 26 26 25 25 24 23 22 21 22 24 26 27 25 24 23 22 22 22 22 22 21 21 20 19 19 19 19 21 23 25 26 27 31 33 35 36 38 36 31 35 41 40 33 24 22 21 21 26 46 82 104 103 101 101 99 100 100 93 99 101 86 89 94 89 93 95 94 93 75
32 31 31 32 30 28 26 25 26 26 25 24 25 28 31 31 29 29 30 30 29 28 27 27 26 26 24 24 25 26 27 26 27 27 24 23 23 23 23 23 23 23 23 22 22 23 24 25 25 26 27 29 32 35 36 37 37 33 37 41 37 36 33 25 21 23 20 24 53 91 106 102 99 101 101 98 94 95 95 92 94 93 88 89 90 91 92 78
34 35 35 34 33 30 27 26 28 27 25 25 26 30 32 32 31 31 33 32 32 30 29 28 27 28 28 27 27 25 24 24 25 27 28 27 25 25 25 25 25 25 25 24 25 25 27 28 28 28 29 31 32 34 36 36 37 35 35 35 33 35 38 34 25 22 23 21 27 52 85 103 101 100 103 99 97 97 93 92 91 82 81 84 82 78 85 87
36 38 38 37 35 31 28 28 30 28 26 26 27 29 32 33 33 33 34 34 33 31 30 29 27 28 29 29 28 24 22 22 21 22 25 27 27 26 25 25 25 27 27 26 26 25 26 27 27 29 31 33 33 35 37 36 37 36 32 32 34 36 39 40 34 26 24 24 23 23 48 91 107 100 99 100 100 100 99 97 86 74 74 79 79 73 77 85
40 41 41 40 37 32 30 31 32 28 27 27 26 29 32 33 33 33 34 34 32 31 30 29 28 28 28 28 26 23 21 21 20 20 20 22 25 26 25 25 25 27 28 28 28 26 27 26 25 29 31 33 36 37 38 37 37 37 34 32 36 36 36 41 40 35 28 24 28 23 25 58 94 103 97 97 102 99 100 103 91 78 78 79 78 74 72 74
44 44 43 42 39 34 33 34 32 29 28 27 26 29 32 32 33 34 34 33 32 31 30 29 30 30 29 27 24 22 21 20 20 19 19 18 19 21 23 24 24 26 28 30 30 29 29 28 27 29 32 36 40 40 39 37 36 38 36 32 35 36 33 39 43 43 37 29 29 30 24 27 55 92 103 97 101 101 97 103 100 89 87 86 80 74 73 71
48 48 46 44 41 37 37 36 32 30 29 26 27 30 32 33 33 34 34 32 32 30 29 29 30 31 31 29 25 22 21 20 20 19 19 19 18 19 19 20 22 23 25 27 29 30 30 30 29 30 34 39 44 44 42 41 38 38 37 31 33 35 34 39 45 47 44 37 33 31 28 23 27 61 99 103 99 102 99 99 103 99 97 97 89 77 74 74
52 52 49 46 43 40 38 35 33 31 29 26 28 32 32 33 33 34 34 32 31 30 29 28 28 30 30 29 27 25 23 21 21 20 20 19 19 19 18 17 18 19 21 24 25 27 28 29 29 32 35 38 43 46 45 44 41 39 37 33 33 33 36 41 43 46 49 45 41 33 26 27 24 35 78 106 101 98 99 100 101 100 101 102 98 83 74 78
55 54 50 46 43 41 37 34 33 30 27 27 30 32 33 34 34 34 34 32 31 30 28 26 27 29 29 30 29 27 25 23 21 21 21 20 19 18 18 16 15 15 17 20 21 22 24 26 28 31 32 34 40 44 45 43 42 41 39 38 36 34 38 41 39 42 52 53 49 41 28 25 29 27 52 94 107 99 96 100 100 98 100 104 102 89 77 79
55 53 48 45 42 39 36 34 32 28 27 29 31 32 33 35 35 35 34 33 32 30 28 26 27 29 30 30 28 27 26 25 22 20 19 19 20 19 17 15 14 13 14 15 17 18 20 22 25 28 30 32 34 38 42 42 42 43 44 42 39 38 40 39 39 42 51 58 54 46 35 26 30 31 35 62 91 103 101 100 99 95 96 101 102 95 83 79
53 51 46 42 39 37 35 33 30 28 28 30 32 33 35 37 38 37 36 35 33 30 27 26 26 28 28 26 25 26 26 25 23 20 19 17 18 18 16 15 13 12 12 13 13 14 15 17 19 23 26 29 31 35 39 44 50 52 49 47 44 41 42 42 45 49 52 60 59 51 42 32 30 34 35 38 55 79 91 95 98 94 93 95 97 97 89 80
52 49 42 38 37 37 36 34 32 32 32 32 33 34 35 38 39 37 36 35 34 30 25 24 25 26 25 22 21 22 22 23 21 19 18 16 15 14 14 13 12 11 10 10 11 12 11 13 14 17 21 25 30 33 38 46 53 54 50 49 49 46 44 46 50 56 58 60 61 55 46 41 35 33 38 38 38 47 58 69 80 87 91 90 88 91 87 79
50 44 37 35 36 38 38 36 37 37 36 36 37 37 37 39 41 38 35 34 34 30 25 23 25 26 23 19 18 19 18 17 16 15 14 14 12 11 10 10 10 10 9 9 10 10 10 10 11 13 17 20 24 28 32 39 43 45 47 46 49 48 46 48 52 58 60 57 57 56 50 49 44 37 36 40 41 41 40 40 46 59 73 81 83 84 81 77
45 37 35 35 38 42 42 41 40 39 38 40 41 40 40 41 44 43 39 37 36 32 27 25 25 25 22 18 18 17 15 12 10 11 11 11 10 10 9 8 8 8 8 9 8 9 10 10 10 12 15 16 18 21 24 32 35 37 40 41 44 49 48 50 54 58 60 54 52 54 54 53 49 44 39 37 41 44 41 34 28 31 43 60 76 79 76 79
37 34 36 39 43 48 47 45 43 40 39 42 44 44 41 40 43 43 41 42 40 35 30 28 27 26 22 18 18 16 13 9 7 8 9 9 9 9 8 8 7 7 6 7 8 8 9 10 11 12 13 14 14 16 18 24 30 30 32 34 39 46 50 53 56 60 62 55 50 53 55 56 54 51 46 40 39 42 43 40 31 24 25 36 57 70 72 73
34 36 41 45 51 53 50 49 46 41 40 44 47 47 43 41 42 42 42 44 44 37 31 30 29 28 25 20 18 16 12 10 8 6 6 7 7 8 8 8 7 7 6 6 7 7 8 9 12 11 10 12 12 13 14 17 23 25 27 29 33 43 51 55 57 61 65 59 52 52 51 53 56 57 55 47 41 41 43 44 36 27 24 24 35 52 60 61
38 42 45 50 55 54 50 52 49 42 43 48 50 50 44 42 44 44 42 44 44 39 33 31 31 29 27 22 21 19 13 11 10 8 7 6 7 7 7 7 7 7 7 6 6 6 7 8 9 10 9 10 11 12 13 14 17 21 26 27 32 41 49 56 61 61 65 63 55 52 48 48 54 60 64 59 48 42 42 44 42 32 25 24 24 30 36 40
44 46 48 53 55 51 51 55 51 44 46 51 53 51 46 44 45 44 43 44 44 41 34 32 32 31 27 23 23 19 13 11 11 10 9 7 7 6 6 6 6 7 7 7 7 6 7 7 7 8 8 9 10 11 12 13 14 16 22 27 33 41 45 58 70 64 59 60 58 54 48 45 52 60 70 74 61 50 46 45 45 40 30 25 24 23 21 21
48 47 49 54 53 49 53 57 51 45 49 54 55 53 47 45 46 44 42 44 45 43 37 35 35 31 26 24 23 17 11 11 10 10 9 7 7 6 6 6 5 6 6 6 7 7 6 6 6 7 7 8 8 10 11 11 12 13 18 24 32 39 42 54 72 66 52 52 56 56 49 45 52 59 70 82 76 62 53 47 45 43 36 27 25 26 23 19
50 48 51 55 53 53 58 58 51 48 53 57 57 55 50 46 46 44 42 45 47 45 39 37 36 31 25 24 23 15 10 10 9 9 8 6 6 5 5 5 5 5 5 5 6 6 6 6 6 6 6 7 7 8 10 10 11 12 15 21 27 35 38 45 61 62 48 45 54 58 50 45 52 56 63 77 80 71 62 53 47 42 37 30 26 27 27 25
51 50 56 59 58 59 61 57 51 52 57 59 60 58 51 46 45 45 44 48 51 46 39 37 36 30 24 23 22 15 9 9 9 8 8 6 5 5 5 4 5 4 4 4 4 4 5 5 6 7 6 6 7 8 9 9 10 12 16 18 20 29 36 39 47 52 45 42 52 60 53 46 49 54 62 72 74 72 67 61 54 46 39 32 28 28 27 28
55 57 63 64 63 63 62 57 53 58 60 60 63 61 51 45 46 46 47 50 52 45 39 38 37 32 27 25 21 14 10 10 9 8 7 6 5 5 5 4 4 4 3 3 3 3 4 4 5 7 6 6 6 7 8 7 8 11 15 15 16 21 29 36 39 42 44 40 46 55 51 43 45 52 65 74 72 69 69 66 61 55 47 38 32 30 27 27
60 63 66 65 64 63 60 57 58 62 62 62 66 62 51 45 46 49 51 52 52 46 39 38 38 32 28 27 22 13 11 11 9 8 6 5 5 4 4 4 3 3 3 3 3 3 3 3 4 5 7 6 5 6 6 6 6 10 12 13 15 17 21 30 35 38 42 37 38 47 45 37 40 50 60 68 68 67 69 70 66 62 58 48 36 31 29 26
64 63 61 59 59 59 57 59 63 64 63 66 69 62 51 46 46 51 55 54 52 46 40 40 40 33 28 30 25 14 11 11 9 8 6 5 5 4 4 4 4 3 3 3 3 3 3 3 3 3 5 6 5 5 5 6 6 8 10 11 14 16 17 23 29 34 36 30 31 40 41 32 33 48 57 56 59 63 67 72 70 65 63 58 45 36 34 31
65 60 55 54 56 56 56 61 65 64 66 70 69 60 52 47 47 52 56 56 52 46 42 44 43 35 29 30 24 14 11 12 9 8 7 5 5 5 4 4 4 3 3 3 3 3 3 3 3 3 4 5 6 5 4 5 6 7 9 9 10 13 15 17 22 26 27 25 30 38 39 29 27 46 58 52 53 60 65 73 75 69 64 63 57 46 39 36
64 59 55 55 56 55 57 62 63 64 70 72 66 59 53 48 47 52 57 58 52 44 41 45 44 33 26 28 23 15 12 11 10 9 7 6 5 5 5 4 4 3 3 3 3 3 3 3 3 3 3 4 4 6 5 4 5 6 7 8 9 10 12 13 15 19 21 25 35 42 40 29 26 44 57 51 51 61 67 74 79 76 69 65 64 55 44 39
64 61 58 55 55 56 59 62 62 66 74 71 63 59 54 48 49 53 57 58 52 43 42 48 48 33 22 26 24 16 14 12 10 10 7 6 5 5 5 4 4 4 3 3 3 3 3 3 3 3 3 3 3 4 5 4 4 5 6 6 7 8 9 11 12 14 18 24 38 47 42 29 26 42 58 52 50 61 69 77 82 81 76 67 64 60 49 42
64 63 59 56 56 58 62 62 62 69 75 68 62 60 54 50 51 54 57 57 51 45 44 47 48 38 28 30 26 16 14 13 11 11 9 7 6 5 5 4 4 4 3 4 3 3 3 3 3 3 3 3 3 3 3 4 4 4 5 5 6 6 7 9 10 12 15 22 37 45 38 28 26 41 57 52 47 56 66 77 84 84 82 73 65 64 58 50
65 64 59 59 60 63 65 61 61 70 72 66 63 60 54 52 52 54 56 56 49 45 48 50 47 41 35 35 29 18 14 13 12 12 10 8 7 5 5 5 5 4 3 4 3 3 3 3 3 3 3 3 3 3 3 3 4 4 4 4 5 6 6 7 8 10 13 19 30 36 31 26 26 38 57 54 45 50 59 72 84 88 93 85 69 67 66 60
65 64 61 62 66 69 66 58 61 71 69 64 64 59 54 54 54 54 56 55 47 42 49 53 48 39 33 34 30 19 15 15 13 13 11 8 8 6 5 5 5 5 4 3 3 3 3 3 3 3 3 3 3 4 3 3 3 4 5 5 5 6 6 6 6 8 11 14 22 28 25 24 24 36 59 61 47 47 54 68 89 100 105 101 84 73 71 68
65 64 63 66 73 74 65 58 63 69 65 62 62 58 55 56 55 54 56 55 47 42 49 53 46 37 30 32 31 21 16 16 15 14 12 9 9 7 6 6 5 5 5 4 4 4 3 3 3 3 3 3 3 4 3 3 3 3 4 5 5 5 5 6 6 7 8 9 15 21 21 21 23 35 59 64 55 58 61 70 93 105 107 110 102 85 72 68
66 65 66 71 77 72 61 62 67 65 60 61 61 57 56 57 56 53 55 55 47 44 51 52 45 38 31 31 32 24 17 17 16 15 13 10 9 7 6 6 5 5 5 4 4 4 4 3 3 3 3 3 4 4 3 3 3 3 3 4 5 5 5 6 7 7 7 7 10 14 16 17 22 36 58 67 70 76 77 79 94 105 108 110 103 85 69 67
69 67 68 73 76 66 59 70 71 59 56 60 60 57 56 57 57 53 53 54 47 45 52 50 44 41 35 34 35 27 19 18 17 16 14 11 9 8 7 6 6 5 4 5 4 3 4 4 3 3 3 4 4 3 3 3 3 3 3 3 4 4 4 5 6 7 7 7 8 10 12 15 23 37 54 64 72 79 79 80 88 101 109 101 85 75 70 72
70 68 70 72 71 63 64 76 72 56 52 57 59 57 56 57 57 54 52 51 46 45 50 48 43 41 38 39 40 30 20 19 19 17 14 11 9 8 7 6 6 6 5 4 5 4 4 4 3 4 3 3 4 3 4 3 3 3 2 3 4 4 4 4 5 7 8 8 9 9 10 16 26 38 45 49 59 67 71 74 76 85 97 88 75 81 82 77
71 71 73 69 63 62 69 75 69 56 52 56 59 57 55 56 57 55 52 48 45 46 52 51 46 43 41 43 44 34 22 20 21 19 15 12 10 8 7 7 6 6 5 4 5 4 4 4 4 4 4 3 3 3 4 3 3 3 3 3 4 4 4 4 5 6 7 8 10 8 10 17 25 32 35 36 45 56 61 65 63 67 78 79 83 100 98 82
74 75 75 67 57 60 69 71 68 62 55 56 60 58 54 55 57 55 49 43 44 50 56 56 52 47 42 46 49 36 25 23 23 23 19 13 11 8 7 7 6 6 6 5 5 4 4 4 4 4 4 3 4 3 3 3 3 3 3 3 3 4 4 5 6 6 6 8 9 9 13 17 19 23 28 30 38 48 52 54 56 57 63 76 95 109 104 88
78 79 77 65 53 57 66 67 69 70 61 59 63 62 57 54 55 55 48 40 42 53 60 59 57 53 44 47 52 36 25 27 27 25 21 13 11 9 7 7 6 6 6 5 6 5 4 4 4 4 4 3 4 4 3 3 3 3 3 3 4 4 5 6 6 5 6 7 9 11 16 17 15 19 25 28 34 43 44 43 48 52 58 81 104 108 103 99
82 82 76 62 52 57 63 63 67 70 64 63 68 67 61 54 53 54 47 38 40 53 64 63 60 55 44 47 52 37 24 27 28 25 21 15 12 10 7 7 7 6 7 6 6 5 4 5 4 4 4 4 4 4 3 3 3 3 3 3 3 4 4 6 5 5 7 8 10 16 19 18 16 18 22 26 32 38 38 37 43 51 63 89 110 105 101 106
85 82 70 59 56 61 62 59 64 67 62 63 68 68 62 55 52 51 45 41 45 55 65 67 62 56 46 47 52 38 25 28 29 26 22 18 16 13 9 8 7 7 8 6 6 6 5 5 4 4 4 4 4 4 3 3 3 3 3 3 4 4 4 5 5 6 8 9 13 18 19 17 16 16 19 24 27 32 35 36 44 55 68 93 110 103 101 107
85 75 63 62 67 66 60 57 61 63 59 61 66 64 60 56 53 49 43 43 53 65 68 63 60 55 48 52 53 38 28 31 32 28 23 20 19 16 11 9 8 8 8 7 7 7 5 5 5 4 4 4 4 4 3 3 3 3 4 4 4 4 4 5 6 6 8 10 14 16 15 14 15 15 16 19 24 30 35 38 46 56 69 93 108 104 103 105
81 67 59 67 77 73 62 58 62 63 61 62 62 59 58 57 51 48 46 44 53 70 72 59 56 55 48 53 56 41 30 33 33 29 25 23 23 20 15 11 9 8 8 8 8 7 6 6 5 5 5 4 4 4 4 4 4 3 4 4 5 5 5 5 6 6 8 10 12 13 12 12 13 12 13 16 21 28 35 40 47 55 67 91 107 105 103 99
75 62 59 69 79 75 63 58 62 67 66 64 60 56 57 58 50 42 48 53 53 64 70 58 55 56 47 49 56 44 33 35 33 29 27 25 26 24 18 13 10 9 8 8 8 8 6 6 5 5 5 4 5 5 4 5 5 5 5 5 5 5 5 5 6 7 8 9 10 11 12 12 12 11 11 14 19 26 34 40 48 57 68 87 102 102 100 95
69 61 63 70 77 77 65 58 64 71 70 64 59 55 55 58 51 37 44 65 67 66 68 59 55 57 48 48 55 48 36 35 32 28 27 26 27 26 20 15 12 10 10 9 8 8 8 7 7 5 5 5 5 6 5 6 6 6 6 7 7 6 6 6 7 7 8 9 10 12 13 13 13 12 12 13 17 25 35 41 51 63 73 88 101 102 101 96
67 67 71 71 77 84 75 64 67 72 71 65 59 56 54 57 55 40 40 65 77 74 73 65 57 56 49 49 59 54 39 33 31 30 31 29 28 25 20 15 13 11 10 9 9 9 9 8 7 6 6 6 6 6 6 6 6 7 7 7 7 8 8 8 8 9 11 13 14 15 15 13 13 13 12 13 17 26 36 44 55 70 85 100 108 107 104 99
70 75 77 70 73 87 84 68 67 70 69 67 60 55 54 55 55 46 41 55 70 73 74 68 60 57 48 47 62 59 41 32 33 36 39 35 30 28 21 15 14 13 11 11 10 10 10 9 8 7 7 6 7 7 6 5 7 8 8 8 8 9 10 11 12 14 15 16 16 16 14 13 13 13 13 14 19 27 38 49 62 78 96 108 110 107 102 99
Wind_Speed
30 31 31 32 33 34 35 36 37 38 39 41 42 43 44 46 48 50 52 54 55 57 59 60 61 62 64 65 65 65 64 63 63 64 64 63 63 66 67 66 66 66 67 68 69 68 69 70 70 68 68 68 69 70 73 74 77 80 82 80 74 69 65 63 62 59 58 62 67 70 69 69 68 68 68 69 70 70 70 69 66 63 60 55 54 55 54 53
31 31 32 32 33 34 36 37 38 38 39 39 40 41 43 45 46 47 49 50 52 53 55 57 58 60 62 64 65 66 66 65 66 66 66 66 66 68 69 69 68 68 69 70 72 72 72 72 72 71 71 71 70 71 73 73 75 77 77 77 72 68 67 66 65 64 63 66 72 75 75 73 72 73 72 72 72 72 74 73 68 63 59 56 55 55 55 55
32 32 33 33 34 35 37 38 39 39 39 39 39 40 41 43 45 46 47 48 49 50 51 53 55 56 58 61 63 65 66 67 67 67 68 69 69 70 71 71 71 71 71 72 74 75 75 74 74 74 73 73 73 73 74 74 74 74 74 72 66 67 70 70 69 69 68 69 74 79 80 77 75 77 77 74 73 74 75 76 71 65 62 59 58 58 57 57
33 33 34 35 35 36 38 40 41 41 40 39 39 39 41 42 43 45 45 46 46 47 48 50 51 53 55 58 61 63 64 66 67 68 69 70 71 71 72 73 74 74 74 75 76 77 78 77 76 76 76 76 76 76 76 75 74 74 71 65 60 67 72 73 74 74 73 73 74 77 81 79 77 80 80 78 75 74 76 76 74 71 68 65 63 61 60 58
34 35 36 36 37 38 40 42 44 43 41 40 40 40 42 43 44 44 45 45 45 46 47 48 49 50 52 55 59 61 63 64 66 67 69 71 72 73 73 74 76 76 76 77 78 79 80 80 79 79 79 79 80 79 77 77 77 74 68 61 61 67 71 74 78 78 77 77 77 77 78 76 77 83 84 81 77 73 73 73 74 75 73 70 67 65 63 60
37 38 38 39 39 40 42 45 46 45 43 42 41 42 43 44 45 45 45 45 45 45 46 47 47 48 49 51 55 59 61 63 65 67 69 71 73 74 74 75 77 78 78 79 80 81 82 82 82 82 83 82 82 81 80 81 80 75 67 62 63 66 69 74 78 81 81 81 80 79 78 77 81 85 86 83 77 73 72 71 72 74 73 72 69 67 65 62
39 40 41 42 42 43 45 48 48 47 46 45 44 44 45 46 46 46 46 46 46 46 46 47 47 47 47 48 51 55 59 61 64 67 69 71 73 74 76 77 78 79 79 80 81 82 83 83 84 85 85 85 85 84 84 84 83 75 67 65 66 67 69 72 77 82 84 84 83 82 81 81 83 83 85 83 77 75 76 71 69 71 70 70 68 65 65 63
41 43 44 44 45 46 49 51 50 49 48 47 46 47 48 48 47 47 46 47 47 46 46 47 47 47 46 46 47 50 54 59 63 67 70 72 74 76 77 78 79 80 80 81 82 83 84 85 86 86 87 87 87 86 87 87 84 76 69 68 69 69 70 72 77 81 84 86 86 85 84 83 81 81 83 83 78 78 79 73 71 71 68 67 66 64 64 62
43 45 46 47 48 50 52 52 51 50 50 50 49 50 51 51 50 49 49 49 48 48 47 46 46 46 46 45 45 46 51 55 61 65 69 72 74 77 78 80 81 82 82 83 83 84 86 88 88 88 88 89 90 90 90 89 86 78 73 73 72 72 73 73 76 79 82 86 87 88 85 82 81 83 85 84 79 79 79 74 73 72 67 66 66 64 63 61
45 47 48 49 51 52 54 54 52 52 52 52 53 54 54 53 52 52 51 51 51 50 49 48 46 44 44 44 44 46 50 54 58 62 67 71 74 77 79 81 83 84 85 85 86 87 88 90 90 90 90 91 92 92 92 90 87 82 78 77 76 75 74 74 75 77 80 84 87 88 86 83 83 87 88 84 80 79 78 75 74 72 68 66 65 63 61 61
47 49 50 51 53 55 56 55 54 54 55 56 56 57 57 56 55 54 54 54 54 53 52 50 46 44 43 42 43 46 49 52 56 60 64 69 73 77 80 82 84 85 87 88 89 89 90 91 91 91 92 93 93 94 94 92 89 87 82 80 79 78 76 76 76 76 78 81 84 86 88 87 88 90 87 82 80 80 78 77 76 73 69 67 66 63 61 62
49 51 52 53 55 57 58 57 56 56 57 59 59 60 60 59 58 57 56 56 56 56 54 51 48 45 43 42 43 46 48 51 55 59 62 66 71 76 79 82 84 86 88 90 91 91 92 92 91 92 93 93 95 96 96 94 92 90 86 83 83 81 79 78 77 77 78 78 81 85 90 91 92 89 82 79 81 81 80 78 77 74 71 70 68 64 62 62
51 52 53 55 57 59 60 59 58 58 59 61 62 62 62 61 60 59 58 58 58 58 56 51 48 46 45 43 44 45 47 49 53 57 61 64 68 72 77 80 82 85 87 90 92 93 94 94 93 93 93 94 95 98 97 96 94 92 91 87 86 85 81 79 78 79 79 78 80 86 90 90 90 86 79 78 82 84 82 80 78 75 74 73 70 66 64 62
52 54 55 57 59 60 61 60 59 59 62 63 63 64 64 63 62 61 61 60 60 60 57 52 48 47 45 44 44 45 46 48 52 55 59 62 65 69 73 77 80 83 86 90 93 95 96 96 96 95 95 95 96 98 98 98 96 95 94 90 88 87 82 80 81 81 81 80 82 89 89 85 85 84 80 79 83 86 84 81 80 77 76 75 73 69 66 63
53 55 56 58 60 61 61 60 60 62 64 65 65 66 67 66 64 63 63 62 62 61 58 52 49 47 45 44 44 44 45 47 50 53 56 59 62 66 70 73 77 80 84 88 93 96 97 98 98 98 97 96 97 98 98 99 98 96 95 92 89 87 83 83 85 84 83 83 86 92 87 80 80 81 81 83 86 89 86 83 82 80 79 77 75 73 68 64
54 56 57 59 60 61 60 60 62 63 65 66 67 68 69 69 67 66 65 65 65 64 59 54 50 48 47 45 44 44 45 46 48 51 54 57 60 63 67 70 73 76 80 85 91 94 97 98 99 100 99 98 98 98 98 99 98 97 96 93 90 88 86 86 87 87 87 88 91 93 85 77 77 78 82 87 90 92 89 86 85 83 81 79 78 75 71 67
56 57 59 60 61 61 60 62 64 65 66 68 70 70 71 72 71 69 68 67 67 66 61 56 52 49 47 45 43 43 44 46 48 50 52 55 57 61 64 67 70 72 76 81 87 92 95 97 99 100 100 100 98 97 98 97 96 95 95 93 92 90 89 90 91 91 91 92 94 93 84 76 77 78 81 87 92 96 93 90 87 85 83 81 79 76 73 70
57 58 60 61 60 60 61 64 66 67 68 69 71 72 74 76 74 72 71 71 69 67 62 57 53 50 47 44 42 41 42 45 47 49 51 53 55 59 62 64 66 68 72 76 81 87 91 94 97 99 100 100 99 97 96 94 93 95 96 95 95 95 93 94 95 95 96 96 95 93 84 77 77 79 80 84 91 97 97 94 91 87 85 83 80 78 75 72
57 59 61 60 59 60 63 65 67 70 71 71 73 74 76 78 77 73 73 73 72 69 64 59 55 52 49 44 41 40 39 41 44 47 49 53 55 57 58 61 63 65 67 71 76 81 85 89 92 94 96 98 99 99 97 95 96 98 99 98 98 98 97 97 98 98 99 98 96 92 84 78 78 79 80 84 90 95 97 97 94 91 88 85 82 80 78 75
58 60 60 60 59 62 64 67 70 73 74 75 76 77 80 83 82 78 76 76 76 73 67 61 58 56 52 46 42 41 39 38 41 44 46 51 55 55 56 56 58 61 63 65 69 74 78 81 83 86 91 97 100 101 100 99 100 100 99 98 98 99 99 98 99 99 101 100 97 92 85 81 81 81 83 86 90 92 95 96 95 93 91 88 84 81 79 76
58 59 59 59 61 63 66 69 72 75 76 77 78 80 82 85 86 84 82 81 80 76 71 66 62 58 54 49 45 43 40 37 37 39 43 46 49 51 53 53 54 56 58 60 64 68 72 73 74 79 87 94 99 100 101 102 102 100 99 97 96 97 98 98 99 100 102 102 97 92 87 83 84 84 85 88 91 91 92 94 94 92 91 88 85 82 80 77
58 58 59 61 63 65 68 71 74 77 78 79 80 81 83 85 85 85 84 84 83 79 74 70 65 61 57 52 47 44 42 39 36 36 38 40 41 44 47 50 51 51 52 55 59 62 65 66 69 77 83 89 93 96 99 101 102 101 99 98 95 95 96 97 98 99 102 102 97 93 89 86 87 88 88 89 91 90 90 90 90 89 89 88 86 84 82 79
58 59 60 63 65 67 71 73 76 79 80 81 82 84 85 87 87 86 85 86 86 81 76 72 68 64 60 55 50 46 43 43 40 38 37 36 36 37 40 43 46 48 49 50 53 57 59 61 69 76 78 81 86 90 94 98 101 101 100 98 95 93 94 95 96 99 102 103 98 95 92 88 90 92 90 89 89 89 88 88 87 87 86 86 85 85 84 81
58 60 62 64 67 70 73 75 78 80 81 82 84 85 87 89 89 87 86 86 86 83 78 74 69 66 62 57 53 50 46 43 42 41 40 38 36 35 36 37 40 44 46 47 49 51 55 61 68 72 72 75 79 84 89 93 96 99 100 99 96 94 94 93 95 98 102 102 98 95 93 90 92 93 90 88 87 87 87 87 85 84 83 82 83 85 85 82
60 62 64 66 69 72 74 76 79 81 82 84 85 87 89 90 90 88 87 87 87 85 80 75 71 67 63 58 54 50 46 41 39 39 39 38 37 34 33 34 35 38 42 44 46 47 52 60 64 65 67 70 73 78 82 86 90 95 98 98 96 95 94 93 95 98 101 100 97 96 94 92 93 94 91 90 89 87 87 86 84 83 82 80 80 82 82 81
61 64 66 68 70 73 75 77 80 82 83 85 86 88 90 91 91 88 87 88 88 86 82 77 72 68 63 58 54 51 45 39 35 35 36 36 35 33 32 32 33 35 37 40 44 46 48 53 56 59 63 66 69 73 77 80 84 89 93 95 96 97 96 94 95 98 98 94 93 96 96 94 95 96 94 93 93 90 88 86 84 82 81 78 75 75 76 77
62 65 67 69 72 74 76 78 81 82 84 86 88 89 91 92 91 89 88 90 90 87 82 77 73 68 63 58 55 52 45 38 34 32 32 32 32 31 30 30 31 33 34 37 40 43 44 45 50 56 61 64 66 68 72 76 78 82 86 92 95 97 97 95 96 97 96 91 93 99 99 96 97 96 95 95 95 91 89 86 82 80 79 76 72 70 69 70
63 66 68 70 73 75 77 79 81 83 85 87 89 90 91 92 91 90 90 92 91 87 81 77 73 69 64 59 56 51 45 39 34 31 30 30 30 30 30 29 29 30 31 34 36 38 40 42 46 53 58 61 64 66 70 74 75 76 81 88 93 96 98 97 97 98 96 94 97 101 100 97 95 93 94 96 95 92 88 84 80 77 75 72 68 66 65 65
65 67 69 71 73 75 77 79 81 84 86 88 90 91 91 92 92 91 92 93 92 87 81 77 73 70 66 60 56 52 46 42 37 32 29 28 28 28 28 27 27 27 28 31 33 34 37 39 42 48 54 59 62 66 70 73 72 73 79 85 89 94 97 98 99 98 98 99 98 98 98 95 91 91 94 96 95 91 87 82 77 73 71 69 66 65 65 64
66 68 69 71 73 75 77 79 82 84 87 89 91 92 92 92 92 93 94 94 92 87 81 77 73 70 66 62 58 52 47 42 38 33 28 27 27 26 26 26 25 24 25 28 30 31 34 36 38 44 52 58 61 65 69 70 68 71 78 83 85 90 94 97 99 99 101 101 96 93 94 92 88 89 94 95 92 88 85 81 77 73 70 69 67 65 64 63
67 69 70 71 73 75 77 79 82 84 87 89 91 92 92 93 93 94 95 94 91 87 81 77 74 71 66 61 57 52 46 42 37 33 30 27 26 26 24 23 23 22 23 25 27 29 31 33 35 40 48 55 59 62 64 65 64 69 76 81 84 87 92 97 99 101 102 98 91 90 92 91 87 86 90 90 87 85 83 81 78 74 72 71 68 65 63 61
68 70 71 72 73 75 77 80 82 84 87 89 91 92 93 93 93 93 95 94 91 86 80 76 73 70 64 60 56 51 46 42 37 34 32 29 25 25 23 22 21 21 21 23 25 27 28 30 34 37 43 50 56 58 60 61 63 68 73 79 83 86 90 95 98 100 98 92 88 89 92 92 86 83 86 86 83 84 83 80 79 75 73 71 69 66 63 61
69 71 72 73 74 76 78 80 83 85 87 89 90 92 93 93 93 93 94 94 90 84 79 75 73 68 62 57 55 52 48 43 37 33 31 28 25 22 22 20 20 19 19 21 23 25 26 29 32 35 38 45 51 55 57 59 62 67 72 77 81 85 89 92 94 95 93 90 90 92 95 93 85 81 83 82 80 82 82 80 79 77 74 73 70 67 64 61
70 72 73 74 75 77 79 81 83 85 88 89 90 92 93 93 94 94 94 93 89 83 78 75 73 69 62 58 55 52 49 44 39 35 32 29 25 22 20 19 18 18 18 19 21 23 25 27 30 32 35 41 46 52 55 57 60 65 70 74 78 83 87 89 90 92 91 92 94 96 98 95 85 79 79 79 78 79 80 80 81 80 78 74 71 68 65 61
70 73 74 75 77 78 80 82 83 85 88 90 91 92 92 93 94 94 93 91 87 81 77 73 71 70 66 62 57 52 48 44 39 37 34 31 27 24 20 19 18 17 16 18 19 21 23 25 28 30 33 37 42 49 52 53 56 60 64 69 72 76 81 85 88 90 92 95 98 100 100 94 84 77 76 77 78 78 80 82 83 82 79 75 71 69 65 60
71 74 76 77 78 80 81 82 83 86 88 90 91 92 91 92 93 94 94 91 85 79 75 72 69 67 64 61 57 52 48 45 41 38 35 31 28 25 21 19 18 17 17 16 18 19 20 23 25 28 30 33 38 43 47 49 51 54 58 62 66 70 73 78 84 88 92 96 97 99 97 90 82 75 73 76 78 77 78 80 81 80 77 75 72 69 66 61
72 74 76 78 79 81 82 83 84 86 88 90 91 91 91 92 93 95 94 90 84 77 73 70 67 64 61 57 54 51 48 45 42 39 36 32 29 26 23 20 17 17 17 16 16 18 19 20 22 25 27 29 33 38 41 44 46 49 52 55 59 64 66 70 77 84 91 93 93 95 92 87 80 73 72 76 76 74 74 76 78 78 78 77 74 71 67 63
72 75 77 79 80 81 83 84 85 86 88 89 90 91 92 93 94 94 93 89 83 76 71 68 65 63 59 56 53 51 48 45 42 40 36 33 30 27 24 21 18 15 15 16 16 16 17 18 20 21 23 26 29 33 36 40 43 45 48 51 55 59 62 66 71 78 83 84 86 89 88 85 79 74 74 77 75 72 72 75 78 80 81 81 78 75 71 66
73 75 77 79 80 82 84 85 85 86 87 88 90 90 92 94 94 94 91 87 80 74 69 65 64 62 59 56 53 51 48 45 43 40 37 33 30 27 24 22 19 16 14 14 15 15 15 17 18 19 20 23 26 30 33 37 40 42 45 49 52 56 58 62 67 72 73 74 78 83 84 82 77 76 78 79 77 75 76 77 80 83 86 85 82 77 72 67
73 75 76 78 80 82 84 86 86 86 87 88 89 90 91 94 95 93 90 84 78 72 67 63 62 61 59 56 54 52 48 45 43 41 36 33 30 27 25 23 20 17 14 13 13 14 14 14 15 16 18 21 24 28 31 33 36 40 43 46 48 51 53 57 62 65 65 67 72 77 80 79 76 79 84 86 85 84 83 82 83 86 88 86 81 75 71 68
73 74 76 77 80 82 84 85 87 87 87 88 88 89 91 93 94 93 88 81 75 70 65 62 61 60 58 56 53 51 48 45 44 41 36 33 30 27 25 23 21 18 15 12 12 12 12 12 13 14 16 19 21 24 27 29 32 35 39 43 46 49 50 53 56 58 61 62 65 71 77 77 78 84 89 91 91 89 86 83 83 84 84 82 77 73 71 69
73 74 76 77 79 82 83 85 87 87 87 88 89 88 90 92 94 91 85 78 72 67 64 62 61 60 57 54 52 50 47 44 43 41 37 34 30 27 24 23 21 19 16 13 11 11 10 10 10 12 14 16 19 21 23 26 29 31 34 39 43 45 47 49 51 55 58 58 62 69 73 75 80 87 91 92 91 88 84 81 79 79 79 77 74 73 72 69
73 75 76 78 79 80 82 84 87 89 89 89 90 89 89 91 93 90 83 75 69 64 61 60 60 59 56 52 50 48 46 44 42 41 38 35 30 27 24 21 19 17 16 14 12 11 9 7 7 9 11 14 16 18 20 24 26 29 32 35 39 42 43 46 50 53 54 55 59 64 66 71 81 87 89 90 89 86 83 79 76 74 74 73 72 71 70 67
74 75 77 78 79 79 81 83 85 88 90 90 91 92 92 91 91 88 80 73 66 61 59 58 57 57 54 49 48 46 43 42 41 38 37 34 30 27 24 22 19 16 15 14 12 10 8 6 5 6 9 12 14 15 18 22 26 29 32 34 37 41 43 45 47 48 49 51 55 57 60 69 78 83 86 88 88 87 83 78 74 71 71 72 72 71 69 67
74 76 77 78 79 79 80 82 83 86 88 89 91 93 93 92 90 85 77 71 64 59 56 56 56 55 52 47 46 45 42 40 38 37 35 33 30 28 26 23 20 18 16 14 11 9 6 4 3 5 7 9 11 14 18 23 27 30 32 35 37 39 41 42 43 43 45 49 52 54 60 69 75 79 83 87 88 86 81 76 72 69 70 72 73 71 69 69
73 75 77 79 79 80 81 81 82 83 85 86 88 90 92 91 88 82 74 67 62 57 54 53 53 53 51 46 45 43 41 39 37 36 34 31 29 28 26 23 20 18 16 14 11 9 6 3 2 4 6 8 10 14 17 20 23 25 29 34 37 37 39 39 40 43 47 50 53 58 65 70 72 74 78 84 86 83 79 74 70 69 70 72 73 72 71 70
73 74 76 78 79 80 81 81 82 82 83 84 86 88 89 89 84 78 71 64 59 56 53 51 51 51 48 45 44 42 40 38 36 34 32 29 27 27 25 23 19 16 14 13 12 10 6 3 1 3 6 8 10 12 14 16 19 22 25 29 33 36 38 39 40 44 48 51 55 61 65 66 66 68 72 78 81 79 76 73 71 70 71 72 73 74 72 70
73 74 75 77 78 79 81 81 81 83 83 84 85 86 89 88 81 72 67 62 56 52 51 50 49 49 45 42 42 41 38 36 34 32 30 28 27 26 25 22 18 14 13 12 11 9 5 3 1 3 6 9 10 12 15 16 18 22 24 25 28 33 37 40 41 44 47 51 55 58 58 58 59 60 64 70 75 77 76 74 72 71 71 72 74 75 72 69
73 75 75 76 77 78 79 79 80 82 84 84 84 85 87 86 79 67 61 59 55 50 49 49 48 48 44 40 39 39 37 34 32 30 28 26 25 24 23 21 17 14 12 11 9 7 6 4 4 6 8 11 12 13 16 18 18 20 23 23 25 30 34 38 42 45 48 50 50 49 49 49 50 53 58 65 72 75 75 74 72 71 71 72 73 73 70 67
74 75 75 76 77 79 79 79 80 82 83 84 84 85 86 83 77 67 58 54 53 50 49 49 47 46 44 40 38 37 35 32 29 29 28 26 24 22 20 19 16 14 12 10 10 9 7 6 6 7 10 13 15 15 16 19 22 23 24 23 24 25 29 33 38 41 43 44 43 42 44 45 47 51 56 62 69 74 75 75 73 71 70 70 71 70 68 66
74 75 76 76 77 79 81 80 80 81 83 84 84 84 85 80 74 68 58 49 48 48 48 48 47 45 42 39 37 37 34 30 29 29 30 28 24 21 18 17 16 14 12 11 10 10 9 8 7 9 12 14 16 17 19 22 24 25 25 25 25 25 26 30 33 36 37 38 39 41 44 46 48 51 55 61 68 73 76 76 74 72 70 70 70 70 69 66
73 74 75 76 76 78 81 80 80 81 82 84 84 83 83 76 68 64 58 49 45 45 45 46 45 44 41 37 35 35 33 30 28 29 29 28 25 21 18 16 15 14 13 12 12 12 11 10 9 10 13 16 18 19 21 24 26 26 26 27 28 28 29 32 34 36 37 38 39 41 44 46 47 49 55 61 67 74 77 76 74 72 70 69 69 70 69 66
Wind_Direction
307 307 307 306 306 306 305 304 303 300 298 296 294 292 289 287 285 283 282 281 279 279 278 277 275 273 272 272 271 271 269 268 265 263 261 260 258 256 255 252 250 249 248 248 247 245 244 245 245 244 243 242 241 240 240 239 238 237 237 235 233 231 229 229 230 229 229 228 231 235 238 240 241 239 235 233 235 236 238 240 239 238 238 236 236 238 240 240
309 309 309 308 308 309 309 309 308 306 304 302 300 297 294 291 289 286 284 282 281 279 278 276 275 273 271 270 269 269 268 267 265 263 261 259 257 256 255 253 251 249 248 247 247 246 244 244 244 244 243 243 242 241 240 240 239 238 238 236 232 230 228 228 228 226 224 224 227 231 235 237 239 240 236 232 231 233 235 237 239 240 239 238 238 239 240 241
313 312 312 311 311 313 315 315 314 312 310 308 305 302 299 296 293 290 288 285 283 280 278 277 275 273 272 270 268 267 266 265 263 262 260 259 257 255 254 253 252 250 248 247 246 245 244 243 243 243 243 243 242 241 241 240 240 239 238 237 232 229 228 227 227 226 225 223 224 228 233 235 236 239 239 234 230 230 233 234 236 237 238 238 239 239 240 241
318 318 316 316 317 319 320 321 320 318 315 313 311 309 306 303 300 296 293 289 286 283 280 277 275 273 271 270 268 266 265 263 262 261 259 257 256 254 253 252 251 249 248 246 245 245 244 243 242 242 242 242 242 242 242 241 240 239 239 237 233 229 228 226 226 226 225 224 223 226 230 232 233 235 237 237 233 229 230 232 233 233 234 235 237 239 240 241
323 322 321 321 322 323 325 327 325 323 320 318 317 316 314 311 307 304 300 295 291 287 283 280 277 274 272 270 268 266 264 262 261 259 256 255 254 253 252 251 250 249 247 246 245 244 243 242 242 241 241 241 242 242 242 242 241 239 238 235 232 230 228 226 226 226 225 225 224 225 228 230 231 232 234 236 236 233 231 231 232 233 233 233 234 237 240 240
326 325 325 325 325 326 330 331 329 326 324 322 322 321 319 317 314 311 306 301 296 292 288 284 280 277 273 270 268 266 263 261 259 257 255 254 253 253 252 250 249 248 247 246 245 244 243 242 241 241 241 241 241 241 241 241 241 239 237 234 232 231 229 226 226 226 226 226 226 225 227 228 229 230 232 234 236 236 235 233 232 234 233 233 233 234 236 238
328 328 328 328 328 330 333 334 332 330 327 326 326 325 323 321 318 316 312 307 302 298 295 291 286 282 277 273 269 265 262 259 257 255 254 252 251 251 250 250 249 248 247 246 245 244 244 243 241 240 240 240 240 240 240 240 240 238 235 233 232 230 229 227 226 226 226 226 226 226 226 227 228 230 232 233 234 235 237 236 234 235 233 233 233 232 233 235
330 331 331 331 332 334 335 335 334 332 330 329 329 328 326 325 323 320 316 312 308 304 301 299 294 288 282 276 271 266 262 259 255 253 251 250 249 249 248 248 248 247 247 246 245 245 244 243 242 241 240 239 239 239 239 240 240 238 235 233 232 230 229 227 226 226 226 226 226 226 226 228 230 231 233 234 232 233 236 236 236 236 234 232 232 231 231 233
332 332 333 333 334 335 336 337 336 334 332 332 332 332 330 329 327 325 321 317 313 311 308 305 300 294 288 281 275 269 264 259 255 252 250 248 247 246 246 246 246 246 245 245 244 244 244 243 242 241 240 239 239 239 239 239 239 238 235 234 232 230 229 228 227 226 226 226 226 227 227 228 230 232 233 233 232 233 234 235 235 236 234 233 232 230 230 232
333 334 334 334 334 335 337 338 337 335 334 335 335 334 333 332 331 329 325 322 319 318 314 309 304 298 292 286 281 274 267 262 257 253 250 248 246 245 244 243 243 243 243 243 242 242 242 242 242 241 240 240 239 238 239 238 238 237 234 233 232 230 229 228 228 228 227 226 226 227 227 227 229 231 232 232 233 233 234 235 235 235 234 233 233 232 230 230
334 334 334 334 335 336 338 339 337 336 336 337 337 336 336 335 334 331 328 326 325 323 320 314 308 301 295 290 284 277 271 267 261 256 252 249 247 245 243 242 241 241 241 242 241 241 240 240 240 240 240 239 239 238 239 238 237 237 234 232 232 231 229 228 228 228 228 227 227 227 227 226 227 230 231 232 234 234 235 235 236 235 235 234 233 232 230 229
334 335 334 334 334 336 339 339 337 337 338 338 337 337 337 336 335 333 330 329 329 328 324 319 313 306 300 295 288 281 275 270 265 260 255 251 248 246 244 243 241 240 240 240 240 240 240 240 239 239 239 239 239 238 238 237 237 236 235 232 232 231 229 228 227 228 228 228 228 228 227 225 226 229 231 233 235 235 234 235 236 235 235 235 233 231 231 230
334 334 334 334 335 337 338 338 337 338 338 338 338 338 338 337 337 335 332 332 332 331 327 323 318 313 307 301 292 285 279 272 267 263 259 255 251 248 246 244 242 240 239 239 239 239 239 239 239 238 238 238 238 238 238 238 237 236 235 233 232 231 229 228 228 227 228 228 228 228 227 226 226 228 229 233 235 235 234 234 234 234 235 235 234 231 230 230
334 334 334 335 335 337 338 337 337 338 338 338 339 339 339 339 338 337 334 334 334 332 330 326 322 317 313 307 298 290 282 275 269 265 262 258 254 251 248 245 243 241 239 238 238 238 237 238 238 237 236 236 236 237 237 237 237 235 235 233 232 231 230 229 229 227 227 227 228 230 227 224 226 226 226 230 234 235 234 233 233 233 233 234 234 232 229 229
334 334 334 335 336 337 337 337 338 338 338 339 340 340 340 340 340 339 337 336 336 334 332 328 324 321 317 312 303 294 286 278 272 268 264 260 257 254 251 248 245 242 241 240 238 237 237 237 236 236 235 235 234 235 235 236 236 235 235 234 233 232 230 229 230 228 227 226 228 230 227 223 224 224 224 227 232 234 233 232 232 232 232 232 233 231 229 228
334 334 334 335 336 337 337 338 339 339 340 340 341 342 342 342 342 340 339 338 338 336 334 331 328 325 322 316 307 298 290 282 275 270 266 262 259 256 253 251 247 244 241 240 240 239 237 236 235 235 235 234 234 234 234 234 234 235 235 234 233 232 231 230 230 229 227 226 228 229 226 221 222 223 223 225 230 233 232 231 231 231 231 231 232 232 229 227
334 334 335 336 337 338 338 339 340 340 342 342 342 343 344 344 343 342 341 340 340 338 336 333 331 329 324 318 310 301 293 285 279 273 268 264 261 258 255 253 250 247 243 241 240 240 238 236 235 235 234 234 234 233 234 234 234 234 234 234 233 232 231 230 230 230 228 227 227 229 225 221 221 222 222 224 228 231 231 230 230 230 230 230 231 232 230 227
335 335 335 337 339 339 340 341 341 343 343 343 344 345 346 346 344 344 343 342 342 340 337 335 333 331 326 319 311 303 295 288 282 277 273 268 263 259 257 255 253 249 246 243 241 240 240 238 236 235 234 234 234 233 233 233 234 234 233 232 232 231 229 229 229 229 229 228 227 228 225 220 220 221 222 224 227 230 231 230 229 229 230 229 230 231 231 229
335 335 336 339 341 341 342 342 343 344 344 344 345 346 347 346 345 344 344 344 343 342 339 337 336 333 328 321 313 304 297 291 284 279 275 271 266 261 258 255 254 252 249 246 244 242 241 240 238 236 235 234 233 233 232 231 231 231 231 230 229 230 229 228 228 229 229 228 228 227 224 220 221 221 222 224 226 229 230 230 228 228 229 229 228 229 230 229
336 336 338 341 342 342 342 343 344 345 345 345 346 347 348 347 346 345 345 345 344 343 341 340 338 335 331 325 319 311 303 294 286 280 273 269 267 265 262 258 255 253 251 249 247 245 243 241 240 238 236 235 233 232 231 230 230 230 230 229 228 229 228 228 228 228 229 229 228 227 224 220 221 221 222 224 226 228 230 230 229 228 228 228 228 229 229 229
337 337 340 342 343 343 342 343 345 346 346 346 347 348 349 348 347 347 346 346 345 344 343 342 340 338 334 330 325 318 309 298 289 284 277 270 268 267 266 263 259 255 253 251 249 247 245 244 241 239 236 235 234 233 231 230 230 230 229 228 228 228 228 228 228 228 230 230 228 227 224 220 221 221 221 223 226 227 229 231 230 228 228 228 228 229 229 229
338 339 340 342 343 342 342 343 345 345 346 347 347 348 349 348 348 348 348 347 347 345 345 343 342 340 336 333 329 323 317 308 298 290 284 279 274 269 266 264 262 259 255 251 249 247 246 244 241 239 236 235 234 233 232 230 230 230 229 228 227 227 228 228 228 228 230 230 228 226 224 221 221 222 221 223 225 227 229 231 231 229 228 229 228 228 229 228
339 340 340 341 342 341 341 343 344 345 346 347 348 348 348 349 349 348 348 348 347 346 345 344 343 342 339 335 332 329 325 318 309 301 295 289 283 275 268 263 261 260 257 252 248 246 245 242 240 238 236 235 234 233 232 230 229 229 229 228 226 226 227 227 227 227 229 230 228 227 224 221 221 221 222 223 224 227 229 231 232 230 228 228 228 228 228 228
339 340 340 341 341 340 341 343 344 344 346 347 348 348 348 349 349 349 348 348 348 347 346 345 344 343 340 338 336 333 329 322 313 306 301 296 290 282 274 266 260 257 255 253 249 244 242 240 238 238 236 235 234 233 232 231 230 229 229 228 226 225 225 226 227 227 228 229 228 227 225 222 222 222 221 223 224 226 228 230 233 233 229 227 228 229 228 228
339 339 339 340 340 340 341 342 343 344 346 347 348 348 349 349 349 349 349 349 348 347 347 346 345 344 341 339 337 335 330 323 313 306 301 298 293 287 280 272 263 256 253 251 250 244 239 238 238 238 237 235 234 233 232 231 229 229 228 228 226 225 224 223 226 227 227 227 226 227 225 223 223 222 221 222 224 224 226 228 230 233 232 228 227 229 230 229
339 339 339 340 339 340 341 342 343 344 346 347 348 349 349 349 349 348 349 349 349 348 347 346 345 343 342 341 339 336 331 324 315 308 302 298 294 289 283 276 269 261 254 249 248 246 242 238 238 237 236 235 234 233 232 231 229 228 227 227 226 225 224 222 224 226 226 225 226 226 225 222 222 222 220 221 222 223 224 226 227 230 232 230 227 228 230 231
338 339 340 339 339 340 341 342 343 344 346 347 348 349 349 348 348 349 349 350 349 348 347 346 345 344 343 343 341 337 333 327 320 314 306 302 298 292 286 279 272 265 258 252 248 246 245 239 235 235 234 233 232 231 231 230 229 227 226 226 225 225 225 223 222 225 225 223 224 226 224 221 221 221 221 221 222 222 223 225 226 228 231 231 228 227 229 231
338 340 340 339 339 340 341 342 343 345 346 347 348 348 348 348 349 349 350 350 349 348 347 346 345 345 344 344 342 339 335 331 327 322 315 308 302 296 290 283 275 268 262 257 251 247 244 239 233 232 233 232 231 229 229 228 226 225 225 225 224 223 224 223 222 223 223 221 221 224 223 221 220 220 221 222 222 222 222 224 225 228 231 232 231 230 228 228
339 340 340 339 340 341 341 342 343 345 346 347 347 347 348 348 349 350 351 350 349 347 347 346 346 346 345 344 343 341 339 336 332 328 323 314 306 298 292 286 279 272 265 259 255 249 245 240 233 229 230 231 230 228 227 227 223 221 223 224 223 223 222 222 222 222 222 221 220 222 223 220 218 219 221 222 222 222 222 223 224 226 230 232 232 231 230 227
340 340 340 340 341 341 342 342 344 345 346 347 347 347 347 349 350 350 350 350 349 347 347 347 346 347 346 345 344 342 340 338 334 331 329 322 313 304 295 289 283 276 268 261 257 252 247 242 235 229 228 229 229 228 227 227 223 219 221 222 222 222 222 222 222 222 222 221 219 221 223 220 216 217 221 222 222 221 221 222 223 224 227 229 229 229 230 229
340 340 341 341 342 342 343 344 345 345 346 347 347 346 347 349 350 350 350 349 348 347 347 347 347 347 347 347 344 343 342 339 336 335 334 330 322 311 301 294 287 280 272 265 259 254 249 245 238 231 228 228 229 229 228 227 223 220 220 221 221 220 220 221 221 222 223 222 219 220 223 220 215 215 220 221 220 221 220 220 222 222 224 227 228 227 228 229
341 341 342 342 343 343 344 345 345 345 346 347 346 346 348 349 350 350 349 348 348 347 346 347 347 346 347 347 345 344 344 342 341 341 337 334 329 319 308 300 291 282 273 267 261 255 249 245 241 233 228 228 229 230 229 227 223 221 220 220 220 220 220 220 220 221 222 222 219 220 222 221 214 213 219 220 219 220 219 219 220 221 222 225 227 227 226 226
341 341 342 343 343 344 345 345 345 346 346 346 346 347 348 349 350 350 349 348 347 347 346 346 346 346 347 348 347 346 346 345 344 344 339 335 333 324 313 305 295 285 275 266 260 255 250 244 242 236 229 227 228 229 229 227 224 221 220 220 219 219 219 220 220 221 221 220 218 219 221 220 213 211 216 218 217 218 218 218 219 219 221 222 225 226 226 224
341 342 343 343 344 344 345 345 345 346 346 346 346 347 348 349 350 350 349 347 347 347 347 347 346 346 348 350 350 349 348 347 347 347 344 340 337 330 320 310 299 289 277 267 259 254 250 245 242 238 232 227 227 228 228 227 224 222 221 221 220 219 219 219 219 220 219 218 216 218 220 219 212 208 213 216 215 216 217 216 217 218 219 220 221 225 226 224
341 342 343 344 344 344 345 345 345 346 346 345 347 347 348 349 349 349 348 347 347 346 346 347 346 346 349 350 350 350 349 349 350 350 348 344 341 336 329 319 308 296 283 270 261 254 250 247 243 239 234 229 227 228 228 227 225 224 223 222 222 221 220 219 218 218 218 216 215 216 219 218 211 205 209 213 213 213 214 215 216 216 217 218 219 221 224 224
341 342 343 344 344 344 344 344 345 346 346 345 346 347 348 349 349 349 348 347 347 347 346 346 347 347 349 349 348 350 350 350 351 352 349 346 344 341 336 331 320 306 293 278 266 257 249 245 244 240 236 232 229 230 230 228 227 226 226 224 223 223 222 220 220 219 218 216 215 216 218 217 211 203 206 213 212 211 211 213 215 216 217 219 218 219 220 221
341 342 343 343 344 343 343 344 346 346 345 346 346 347 348 349 349 348 347 346 346 347 346 346 347 347 348 349 349 351 352 351 352 351 350 349 347 343 340 338 330 314 299 285 272 262 252 245 242 241 237 233 231 230 230 229 227 226 226 226 225 224 223 222 221 221 220 217 215 216 218 217 210 202 205 213 213 211 210 211 213 214 216 218 218 217 217 217
341 341 343 343 343 342 342 343 346 346 345 346 346 346 347 348 348 348 347 346 346 346 346 345 346 347 349 350 351 352 352 352 353 351 350 349 348 344 342 339 335 324 305 291 278 267 258 249 242 239 238 234 231 230 228 227 225 223 223 223 224 224 223 222 222 222 222 221 217 216 217 216 209 200 204 211 212 211 211 210 210 211 214 215 215 215 215 214
340 341 342 342 341 341 342 343 345 345 345 346 346 347 348 348 347 347 347 345 345 345 345 345 346 348 349 350 352 353 352 353 354 352 350 349 348 345 344 341 336 331 317 300 286 273 263 255 245 240 238 234 230 229 225 223 221 219 217 218 219 220 220 220 221 222 222 221 219 218 218 216 207 200 203 209 210 211 211 209 208 209 211 213 213 213 212 212
339 340 341 341 340 340 342 343 343 344 345 346 346 347 348 347 346 347 346 345 344 344 344 345 347 350 350 351 353 353 353 354 355 352 350 349 348 347 345 342 338 334 327 312 297 283 271 261 252 243 239 235 231 228 225 222 220 217 214 213 215 217 217 218 220 221 221 219 217 217 218 215 206 201 204 207 208 209 209 208 207 207 209 210 210 210 211 211
337 339 340 340 340 340 342 342 341 342 345 345 346 347 348 347 346 345 346 345 344 343 344 346 348 351 351 351 352 353 352 355 355 352 351 351 350 350 347 343 341 337 332 323 309 296 283 271 260 248 241 237 232 228 225 221 219 219 216 211 210 213 214 214 215 217 218 216 214 215 216 213 206 204 205 206 207 207 206 206 206 206 207 208 207 209 211 211
336 338 338 339 339 340 342 341 340 342 344 345 346 347 348 347 345 344 345 344 343 343 345 347 349 351 352 351 352 352 352 355 356 353 352 352 351 352 351 347 344 340 337 333 323 309 296 282 266 252 242 237 232 226 221 218 214 214 216 214 210 209 210 210 210 211 213 211 209 212 212 210 208 206 206 207 207 207 206 205 205 205 205 205 206 209 211 211
335 336 337 337 339 340 341 341 340 342 344 345 345 346 348 347 345 343 344 344 344 344 345 347 349 351 352 351 351 352 353 355 356 354 351 350 351 353 354 351 348 345 344 342 332 320 308 290 265 250 240 235 231 223 215 214 209 205 206 210 210 208 207 208 208 206 206 204 205 208 208 207 209 208 206 207 208 207 205 203 203 203 203 203 206 210 211 211
334 335 335 336 338 340 340 341 341 342 343 344 345 345 347 347 345 343 343 344 344 344 346 348 349 350 351 351 350 352 354 356 356 353 350 349 353 356 357 355 353 353 354 350 341 329 315 296 261 239 233 230 226 217 208 206 204 200 197 200 205 205 203 205 207 204 200 199 201 202 204 207 209 208 206 206 207 207 205 202 200 200 200 201 204 208 210 211
333 333 334 335 337 339 340 340 341 342 343 344 345 344 345 346 345 343 343 343 344 345 347 348 349 349 350 351 350 351 355 357 356 352 350 351 355 359 360 359 358 1 2 356 349 339 323 306 263 224 217 220 216 208 204 201 200 198 193 191 197 201 200 199 200 198 195 195 195 196 200 205 208 207 205 205 206 206 204 201 199 198 198 199 202 206 209 210
331 332 333 334 337 339 339 340 341 342 343 344 344 343 343 344 344 343 342 343 343 345 347 348 348 350 350 350 350 352 356 358 356 352 351 353 358 1 1 0 1 5 3 359 356 350 339 327 283 213 194 200 203 200 201 201 199 197 194 189 189 193 195 193 192 192 191 191 191 193 199 203 204 204 203 203 204 204 202 200 197 196 197 198 200 204 207 209
330 331 333 335 337 337 338 339 341 341 343 344 344 343 343 343 344 343 341 342 343 344 346 348 349 351 351 349 350 353 357 358 356 352 351 355 360 3 3 4 6 7 6 6 4 355 348 352 306 199 176 175 182 187 190 192 192 190 191 192 188 186 187 186 186 189 189 187 190 195 199 201 201 202 202 202 202 201 199 197 195 195 196 197 199 203 206 208
329 330 333 335 336 336 337 338 340 341 343 344 344 344 344 343 344 344 341 341 343 344 344 347 350 352 352 350 350 354 357 358 355 352 354 358 2 5 5 7 9 10 12 16 11 1 359 20 99 149 156 155 161 173 174 174 182 183 181 185 188 185 183 181 181 184 186 188 191 196 198 199 199 199 199 199 199 197 196 196 195 194 195 196 199 202 205 207
329 330 333 334 334 335 336 338 340 341 342 343 344 345 345 343 343 345 342 340 342 344 344 347 351 352 352 351 352 355 358 358 355 354 358 1 5 7 8 9 12 14 19 26 27 23 27 52 98 127 145 148 151 160 163 161 167 170 167 172 182 185 181 178 178 180 184 188 190 193 194 195 196 195 195 196 196 194 194 194 194 193 194 196 199 201 204 206
328 330 333 334 334 334 336 338 341 342 341 343 344 345 345 343 342 344 345 342 341 343 345 346 351 353 352 351 352 356 359 357 356 358 1 3 7 11 13 16 20 22 25 34 43 48 57 75 103 128 143 144 144 148 152 154 157 156 155 160 170 177 177 176 176 177 180 182 183 185 187 189 190 190 190 192 192 191 191 191 192 192 193 195 198 200 203 205
329 331 332 334 334 335 336 338 341 341 341 342 344 345 345 345 342 341 344 344 341 342 344 345 349 353 353 352 353 356 358 359 1 3 2 2 5 10 16 24 30 32 34 43 53 60 69 85 108 128 135 137 139 142 147 151 149 146 146 151 155 161 166 169 170 170 172 173 175 179 182 184 185 186 186 187 188 188 188 189 189 189 191 193 196 198 201 203
329 331 331 333 335 335 335 338 340 341 341 342 343 345 345 345 342 339 341 344 342 342 344 344 347 352 354 354 353 355 358 1 5 7 3 0 3 8 14 26 38 40 44 52 60 66 72 81 98 115 127 134 136 139 146 147 140 135 138 142 143 148 155 159 160 161 163 167 172 177 181 180 180 181 182 183 184 185 186 187 187 187 189 192 195 198 199 200